TimePST,TemperatureF,Dew PointF,Humidity,Sea Level PressureIn,VisibilityMPH,Wind Direction,Wind SpeedMPH,Gust SpeedMPH,PrecipitationIn,Events,Conditions,WindDirDegrees,DateUTC
12:58 AM,28.9,1.2,31,30.47,10.0,North,3.5,-,N/A,,Clear,360,2013-01-16 08:58:00
1:58 AM,25.0,-0.9,33,30.48,10.0,NNE,6.9,-,N/A,,Clear,30,2013-01-16 09:58:00
2:58 AM,23.9,-0.8,34,30.48,10.0,NE,2.3,-,N/A,,Clear,40,2013-01-16 10:58:00
3:58 AM,21.2,-2.4,36,30.48,10.0,Calm,Calm,-,N/A,,Clear,0,2013-01-16 11:58:00
4:58 AM,20.1,-0.9,40,30.48,10.0,East,3.5,-,N/A,,Clear,90,2013-01-16 12:58:00
5:58 AM,21.2,-0.0,40,30.48,50.0,NW,1.2,-,N/A,,Partly Cloudy,320,2013-01-16 13:58:00
6:58 AM,20.7,-0.4,40,30.50,90.0,NNE,2.3,-,N/A,,Partly Cloudy,30,2013-01-16 14:58:00
7:58 AM,22.3,2.1,42,30.53,90.0,NNE,2.3,-,N/A,,Partly Cloudy,30,2013-01-16 15:58:00
8:58 AM,27.7,3.9,36,30.53,90.0,Calm,Calm,-,N/A,,Partly Cloudy,0,2013-01-16 16:58:00
9:58 AM,34.5,6.8,31,30.52,90.0,NNE,4.6,-,N/A,,Partly Cloudy,20,2013-01-16 17:58:00
10:58 AM,43.9,10.8,26,30.47,90.0,North,4.6,-,N/A,,Partly Cloudy,350,2013-01-16 18:58:00
11:58 AM,50.4,16.9,27,30.41,90.0,NNW,5.8,-,N/A,,Partly Cloudy,340,2013-01-16 19:58:00
12:58 PM,54.0,19.0,25,30.37,90.0,NE,6.9,-,N/A,,Partly Cloudy,40,2013-01-16 20:58:00
1:58 PM,55.4,19.4,25,30.35,90.0,ENE,8.1,-,N/A,,Partly Cloudy,60,2013-01-16 21:58:00
2:58 PM,55.8,18.7,23,30.34,95.0,NNE,4.6,-,N/A,,Clear,30,2013-01-16 22:58:00
3:58 PM,55.6,18.5,23,30.34,95.0,North,4.6,-,N/A,,Clear,350,2013-01-16 23:58:00
4:58 PM,52.7,18.0,25,30.36,90.0,NNW,5.8,-,N/A,,Clear,340,2013-01-17 00:58:00
5:58 PM,46.9,16.2,29,30.37,90.0,NNW,6.9,-,N/A,,Clear,340,2013-01-17 01:58:00
6:58 PM,41.7,13.8,32,30.38,60.0,SE,6.9,-,N/A,,Clear,130,2013-01-17 02:58:00
7:58 PM,37.2,12.4,36,30.39,60.0,SW,2.3,-,N/A,,Clear,220,2013-01-17 03:58:00
8:58 PM,33.3,10.2,38,30.39,60.0,NW,2.3,-,N/A,,Clear,310,2013-01-17 04:58:00
9:58 PM,31.5,8.6,38,30.38,60.0,Calm,Calm,-,N/A,,Clear,0,2013-01-17 05:58:00
10:58 PM,27.9,6.8,41,30.37,10.0,NE,2.3,-,N/A,,Clear,40,2013-01-17 06:58:00
11:58 PM,28.6,6.6,39,30.36,10.0,Calm,Calm,-,N/A,,Clear,0,2013-01-17 07:58:00